Regional Weather Roundup
Issued by NWS Wakefield, VA

Home | Current Version | Previous Version | Graphics & Text | Print | Product List | Glossary On
Versions: 1 2 3 4 5 6 7 8 9 10 11 12 13 14 15 16 17 18 19 20 21 22 23 24 25 26 27 28 29 30 31 32 33 34 35 36 37 38 39 40 41 42 43 44 45 46 47 48 49 50
000
ASUS41 KAKQ 281314
RWRAKQ

REGIONAL WEATHER ROUNDUP
NATIONAL WEATHER SERVICE WAKEFIELD VA
900 AM EDT FRI AUG 28 2015

Note: "fair" indicates few or no clouds below 12,000 feet with no
significant weather and/or obstructions to visibility. * = Denotes
station may not report precipitation (e.g., rain,snow,etc.),
thunder or fog.

VAZ042-051-052>054-056-281400-
NORTHERN VIRGINIA

CITY           SKY/WX    TMP DP  RH WIND       PRES   REMARKS
WASH NATIONAL  MOSUNNY   70  59  68 CALM      30.21R
DULLES         MOSUNNY   68  58  70 NW3       30.21R
FORT BELVOIR   SUNNY     70  61  74 CALM      30.20R
QUANTICO       MOSUNNY   69  60  73 CALM      30.21R
FREDERICKSBRG* MOSUNNY   70  63  78 CALM      30.20R
STAFFORD*      SUNNY     68  62  79 CALM      30.25R
WARRENTON      SUNNY     69  62  78 CALM      30.21R
CULPEPER*      SUNNY     66  60  80 CALM      30.22R
MANASSAS*      SUNNY     66  63  88 CALM      30.21R
LEESBURG*      SUNNY     68  61  77 CALM      30.23R
WINCHESTER     MOSUNNY   66  55  68 CALM      30.22R
FRONT ROYAL*   PTSUNNY   63  57  82 CALM      30.22R
LURAY*         FAIR      63  57  82 CALM      30.23R
$$

VAZ048-049-060>072-079>083-281400-
CENTRAL AND SOUTH CENTRAL VIRGINIA

CITY           SKY/WX    TMP DP  RH WIND       PRES   REMARKS
RICHMOND       MOSUNNY   72  61  68 N5        30.20R
CHESTERFIELD*  FAIR      72  54  53 N3        30.22R
PETERSBURG*    SUNNY     71  66  84 N5        30.21R
HANOVER        MOSUNNY   69  62  78 CALM      30.22R
TAPPAHANNOCK*  SUNNY     71  63  77 CALM      30.20R
QUINTON*       FAIR      67  63  86 CALM      30.19R
CHARLOTTSVILLE SUNNY     69  58  67 CALM      30.22R
GORDONSVILLE*  FAIR      69  60  73 CALM      30.21R
ORANGE*        SUNNY     70  61  73 CALM      30.23R
LOUISA*        SUNNY     70  61  73 CALM      30.20R
BUMPASS*       FAIR      69  62  78 CALM      30.21R
FARMVILLE*     SUNNY     69  59  69 CALM      30.20R
CREWE*         FAIR     N/A N/A N/A CALM      30.20S
FORT PICKETT*  FAIR      69  62  78 N6        30.21R
CHASE CITY*    FAIR      72  63  74 E3        30.20S
CLARKSVILLE*   FAIR      68  61  77 CALM      30.20R
SOUTH HILL*    SUNNY     67  61  83 N6        30.25S
LAWRENCEVILLE* FAIR      68  63  83 N3        30.20R
EMPORIA*       SUNNY     68  63  83 CALM      30.20R
$$

VAZ088>098-281400-
SOUTHEAST VIRGINIA

CITY           SKY/WX    TMP DP  RH WIND       PRES   REMARKS
NORFOLK        SUNNY     77  62  59 NE8       30.16R
VIRGINIA BEACH MOSUNNY   79  65  62 NE8       30.15R
NORFOLK NAVAL  MOSUNNY   78  62  57 NE9       30.18R
WEST POINT*    SUNNY     73  64  73 N3        30.20R
SALUDA*        FAIR      73  63  70 NE5       30.18R
NEWPORT NEWS   SUNNY     76  65  68 N6        30.18R
LANGLEY AFB    SUNNY     77  61  57 NE9       30.16R
FORT EUSTIS    SUNNY     75  62  64 VRB6      30.16R
WILLIAMSBURG*  SUNNY     72  70  94 CALM      30.19R
HR EXEC AP*      N/A     73  66  78 CALM      30.18R
FRANKLIN*      SUNNY     71  64  78 N5        30.19R
WAKEFIELD      SUNNY     72  64  76 CALM      30.18R
$$

VAZ020-022-025-037-045-281400-
WEST CENTRAL AND SOUTHWEST VIRGINIA

CITY           SKY/WX    TMP DP  RH WIND       PRES   REMARKS
STAUNTON*      MOSUNNY   65  57  75 CALM      30.25S
WAYNESBORO*    FAIR      65  58  78 MISG      30.24S
HOT SPRINGS VA PTSUNNY   62  58  86 W3        30.29R
LYNCHBURG      SUNNY     68  60  75 CALM      30.23R
DANVILLE       SUNNY     70  63  78 CALM      30.21R
SOUTH BOSTON*  FAIR      67  62  84 CALM      30.21R
MARTINSVILLE   SUNNY     67  65  94 CALM      30.25R
ROANOKE        SUNNY     68  60  75 CALM      30.25R
BLACKSBURG     CLOUDY    67  62  83 CALM      30.29R
DUBLIN*        CLOUDY    64  63  97 CALM      30.27R
MARION*        SUNNY     65  60  84 E5        30.29R
HILLSVILLE*    SUNNY     63  59  87 SW6       30.26R
RICHLANDS*     PTSUNNY   65  31  27 CALM      30.25R
WISE*          MOSUNNY   66  57  72 SW5       30.26R
ABINGDON*      MOSUNNY   68  60  75 E6        30.24R
$$

MDZ021>025-VAZ099-100-281400-
SOUTHERN MARYLAND AND THE DELMARVA PENINSULA

CITY           SKY/WX    TMP DP  RH WIND       PRES   REMARKS
PATUXENT RIVER MOSUNNY   73  61  65 VRB6      30.19R
BAY BRIDGE APT   N/A     72  57  60 NE3       30.20R
LEONARDTOWN    SUNNY     70  61  73 CALM      30.21R
DOVER          SUNNY     70  62  77 N8        30.18R
GEORGETOWN     SUNNY     72  59  63 N7        30.19R
EASTON         SUNNY     72  63  73 NE7       30.23R
CAMBRIDGE      SUNNY     72  61  68 NE3       30.19R
SALISBURY      SUNNY     70  62  76 NE7       30.18R
OCEAN CITY     SUNNY     74  60  61 N8        30.17R
WALLOPS ISLAND MOSUNNY   72  61  68 N8        30.18R
ACCOMACK*      SUNNY     70  63  78 N5        30.17R
$$

NCZ012>017-030>032-281400-
NORTH CENTRAL AND EASTERN NORTH CAROLINA

CITY           SKY/WX    TMP DP  RH WIND       PRES   REMARKS
ROANOKE RAPIDS FAIR      68  61  77 N6        30.18R
RALEIGH        MOSUNNY   70  62  76 NE3       30.19R
ELIZABETH CITY MOSUNNY   74  65  73 N8        30.15R
AHOSKIE*       SUNNY     69  62  76 N3        30.17S
EDENTON*       MOSUNNY   69  62  79 N6        30.15S
CURRITUCK*     MOSUNNY   74  63  66 NE8       30.15S
KILL DEVIL HLS MOSUNNY   78  62  58 NE8       30.12S
MANTEO         MOSUNNY   76  63  62 NE14      30.13R
CAPE HATTERAS  MOSUNNY   77  65  66 NE8       30.11R
TARBORO*       FAIR      70  64  79 CALM      30.18R
GOLDSBORO      MOSUNNY   70  64  79 NE9       30.15R
WASHINGTON     MOSUNNY   70  64  82 N6        30.15R
GREENVILLE     MOSUNNY   68  64  88 N6        30.17R
NEW BERN       SUNNY     74  65  73 N7        30.14S
WILMINGTON     MOSUNNY   74  66  76 NE12      30.11R
$$

VAZ048-281400-
ELSEWHERE

CITY           SKY/WX    TMP DP  RH WIND       PRES   REMARKS
HARRISBURG PA  MOSUNNY   65  59  81 W5        30.21R
BALTIMORE      MOSUNNY   70  57  63 NE5       30.20R
ANNAPOLIS      SUNNY     72  61  68 N3        30.20R
ANDREWS AFB    SUNNY     72  57  58 NE6       30.20R
PHILADELPHIA   MOSUNNY   73  53  49 VRB6      30.19S
HENDERSON NC   SUNNY     67  62  84 N3        30.20S
GREENSBORO     MOSUNNY   69  62  78 NE5       30.21R
ROCKY MOUNT    SUNNY     72  62  71 NE8       30.17R
$$

VAZ100-281400-
MARINE

STATION/POSITION TIME  TEMP    WIND        PRES    WAVE   SWELL
                       AIR SEA DIR/SP/G            HT/PER HT/PER
                 (UTC) (F)     (DEG/KT/KT) (MB)    (FT/S) (FT/S)
BRANDYWINE LGT   1200   69 74   50/ 12/ 13 1021.7R
CAPE MAY NJ      1200   68 78   50/  3/  5 1021.1R
LEWES DE         1200   71 75   50/ 11/ 12 1021.3R
15NM E FENWICK I 1250   73 78   10/ 12/ 14 1021.5R   3/11   2/11
OCEAN-CITY-INLET 1200   70 76   10/  7/  9 1020.4R
WACHAPREAGUE VA  1200   71 76   20/  5/  6 1021.1R
THOMAS POINT MD  1200   70      20/  7/  8 1022.4
GOOSES REEF MD   1300   73 78   60/  8/ 10 1023.5R
COVE POINT MD    1200   70      70/  8/ 10 1022.3R
SOLOMONS ISLAND  1200      81                N/A
BISHOPS HEAD MD  1200   70 74   20/  6/ 10 1020.6R
PINEY POINT MD   1200           60/  5/  6   N/A
POTOMAC MD       1300   74 79   50/ 10/ 12 1021.1R   1/ 2
CAMBRIDGE MD     1200   67 80   30/  4/  5 1020.9R
LEWISETTA VA     1200   74 77   60/  4/  7 1021.2R
RAPPAHANNOCK LGT 1200           50/ 11/ 12 1021.6R
STINGRAY PT      1300   76 79   30/  8/ 12 1022.3R   1/ 3
YORK RVR RNG VA  1200   75      70/  9/ 11 1020.5R
YORKTOWN VA      1200   71 80  360/  7/  8 1020.9R
JAMESTOWN VA     1300   73 81   40/  4/  6   N/A
DOMINION TERM VA 1200   73      40/  4/  5 1020.8R
KIPTOPEKE VA     1200      78   70/  4/  5   N/A
CHES BAY BRIDGE  1200   74 79   20/ 13/ 15 1020.2R
CAPE HENRY VA    1200   74      30/ 13/ 17   N/A
CHESAPEAKE LGHT  1200   75      30/ 15/ 16 1021.1R
WILLOUBY STN VA  1200   75      60/ 11/ 12 1021.7R
CAPE HENRY BUOY  1228      78                N/A     3/12   2/12
1ST LANDING BUOY 1300      78              1020.9R   2/ 4
CAPE CHARLES BUO 1226      78                N/A     3/10   2/10
OFFSHORE WE BUOY 1211      78                N/A     3/11   2/11
64NM E OF VA BCH 1250   77 79   30/ 14/ 17 1019.7R   4/ 9   3/ 9
DUCK PIER NC     1200   76 78   40/ 16/ 18 1019.3R
44100 DUCK FRF   1224      78                N/A     4/ 4   2/13
44056 DUCK FRF   1211      78                N/A     4/ 4   2/11
OREGON INLET NC  1200   77 76   30/ 13/ 17 1019.4R
HATTERAS NC      1200   77 78   40/ 10/ 17 1018.7R


USA.gov is the U.S. government's official web portal to all federal, state and local government web resources and services.